Погода в Центральном

Россия / Ивановская область     56°44′33″N   41°22′27″E
темп.,
°C
ветер,
м/с
пор.,
м/с
влажн.,
%
обл.,
%
осадки,
мм/ч
давл.,
гПа
погр.,
м
16 мая, вс
вс1600:00+14ю311965 0.0 1011299
03:00+12ю29976 0.0 1011184
06:00+13ююз310930 0.0 1012345
09:00+18юз59694 0.0 1013740
12:00+22юз58510 0.0 10131546
15:00+23юз58477 0.0 10132315
18:00+20юз396427 0.0 1013532
21:00+14юз25890 0.4 101482
17 мая, пн
пн1700:00+13юз23950 0.0 101544
03:00+12зюз229680 0.0 101619
06:00+14зюз119073 0.0 101749
09:00+20юв226659 0.0 1017569
12:00+24юв23485 0.0 10171329
15:00+25вюв234645 0.0 10161456
18:00+24вюв366312 0.0 1015404
21:00+17в31092100 0.6 1015207
18 мая, вт
вт1800:00+16вюв2594100 0.0 101476
03:00+14вюв2591100 0.0 101585
06:00+15вюв288787 0.0 1015178
09:00+22юв4755100 0.0 1014336
12:00+27юв594017 0.0 10141406
15:00+28юв593670 0.0 10132337
18:00+24юв511535 0.0 1012685
21:00+18вюв3128195 0.0 1013244
19 мая, ср
ср1900:00+17юв3148239 0.0 1013322
03:00+16вюв315783 0.0 1012304
06:00+18юв416675 0.0 1012418
09:00+24юв5144871 0.0 1012648
12:00+28юв612345 0.0 10111828
15:00+29юв610365 0.0 10112664
18:00+26юв611482 0.0 10101072
21:00+22вюв61562100 0.0 1009679
20 мая, чт
чт2000:00+16всв3109598 1.0 1010236
03:00+15вюв3119369 1.1 1009262
06:00+16юв413887 0.0 1009606
09:00+21ююв596513 0.0 10081022
12:00+20ююв597068 0.3 10091415
15:00+22ю510557 0.9 10091874
18:00+19ююз4966100 0.4 10091227
21:00+15ююз31078100 0.4 1011464